Flag for U.S.A. Weather past 2 weeks in Daytona Beach, Florida, U.S.A.

Now
71 °F

Scattered clouds.


Feels Like: 75 °F
Forecast: 61 / 76 °F
Wind: 6 mph from North

Location: Daytona Beach Regional Airport

Current Time: Oct 24, 2014 at 7:41:27 PM

Latest Report: Oct 24, 2014 at 6:53 PM


Visibility: 10 mi

Pressure: 29.93 "Hg

Humidity: 63%

Dew point: 58 °F

Location of Daytona BeachLocation

Historic Weather in Daytona Beach — Graph

°F

Daytona Beach temperature yesterday

Maximum temperature yesterday: 77 °F (at 11:53 AM)
Minimum temperature yesterday: 58 °F (at 7:53 AM)
Average temperature yesterday: 69 °F

Past Weeks' High & Low Weather Summary

 TemperatureHumidityPressure
High89 °F (Oct 14, 2:53 PM)100% (Oct 10, 4:53 AM)30.13 "Hg (Oct 10, 4:53 AM)
Low57 °F (Oct 18, 6:53 AM)37% (Oct 18, 2:53 PM)29.87 "Hg (Oct 16, 3:53 PM)
Average73 °F75%30.00 "Hg
* Reported Oct 9 5:53 PM — Oct 24 5:53 PM, Daytona Beach, Weather by CustomWeather, © 2014

Note: Actual official high and low records may vary slightly from our data, if they occured in-between our weather recording intervals... More about our weather records

Advertising

Daytona Beach weather history for previous 24 hours

 ConditionsComfort  
Time TempWeatherWind HumidityBarometerVisibility
5:53 PM
Oct 24
74 °FScattered clouds.12 mph57%29.93 "Hg10 mi
4:53 PM76 °FScattered clouds.9 mph54%29.94 "Hg10 mi
3:53 PM77 °FPassing clouds.10 mph50%29.95 "Hg10 mi
2:53 PM77 °FScattered clouds.16 mph50%29.96 "Hg10 mi
1:53 PM78 °FScattered clouds.16 mph48%29.98 "Hg10 mi
12:53 PM77 °FScattered clouds.15 mph50%30.00 "Hg10 mi
11:53 AM76 °FPassing clouds.13 mph52%30.02 "Hg10 mi
10:53 AM76 °FPassing clouds.13 mph52%30.02 "Hg10 mi
9:53 AM72 °FPassing clouds.6 mph61%30.01 "Hg10 mi
8:53 AM63 °FPassing clouds.5 mph78%30.00 "Hg10 mi
7:53 AM59 °FPassing clouds.3 mph87%29.99 "Hg10 mi
6:53 AM60 °FPassing clouds.6 mph83%29.98 "Hg10 mi
5:53 AM59 °FPassing clouds.5 mph87%29.97 "Hg10 mi
4:53 AM59 °FPassing clouds.6 mph87%29.96 "Hg10 mi
3:53 AM58 °FPassing clouds.No wind90%29.97 "Hg10 mi
2:53 AM60 °FPassing clouds.3 mph83%29.98 "Hg10 mi
1:53 AM60 °FPassing clouds.5 mph83%30.00 "Hg10 mi
12:53 AM61 °FPassing clouds.No wind81%30.01 "Hg10 mi
11:53 PM
Oct 23
62 °FPassing clouds.3 mph80%30.02 "Hg10 mi
10:53 PM63 °FPassing clouds.3 mph78%30.03 "Hg10 mi
9:53 PM66 °FPassing clouds.3 mph70%30.01 "Hg10 mi
8:53 PM63 °FPassing clouds.No wind78%30.00 "Hg10 mi
7:53 PM69 °FPassing clouds.8 mph59%30.00 "Hg10 mi
Weather by CustomWeather, © 2014

See weather overviewHow to use our weather pages